Flag for Germany Weather past 2 weeks in Freising, Bavaria, Germany

Now
45 °F

Light rain. Overcast.


Feels Like: 41 °F
Forecast: 44 / 48 °F
Wind: 7 mph from West

Location: Muenchen Flughafen

Current Time: Mar 29, 2015 at 3:51:52 AM

Latest Report: Mar 29, 2015 at 3:00 AM


Visibility: 14 mi

Pressure: 30.01 "Hg

Humidity: 90%

Dew point: 42 °F

Location of FreisingLocation

Historic Weather in Freising — Graph

°F

Freising temperature yesterday

Maximum temperature yesterday: 53 °F (at 4:00 PM)
Minimum temperature yesterday: 37 °F (at 3:00 AM)
Average temperature yesterday: 45 °F

Past Weeks' High & Low Weather Summary

 TemperatureHumidityPressure
High64 °F (Mar 17, 3:00 PM)99% (Mar 24, 1:00 AM)30.33 "Hg (Mar 24, 1:00 AM)
Low23 °F (Mar 21, 6:00 AM)31% (Mar 20, 5:00 PM)29.54 "Hg (Mar 25, 5:00 PM)
Average42 °F72%30.09 "Hg
* Reported Mar 14 1:00 AM — Mar 29 1:00 AM, Freising, Weather by CustomWeather, © 2015

Note: Actual official high and low records may vary slightly from our data, if they occured in-between our weather recording intervals... More about our weather records

Advertising

Freising weather history for previous 24 hours

 ConditionsComfort  
Time TempWeatherWind HumidityBarometerVisibility
1:00 AM
Sun, Mar 29
44 °FOvercast.7 mph89%30.03 "Hg19 mi
12:00 AM44 °FLight rain. Overcast.6 mph92%30.05 "Hg7 mi
11:00 PM
Sat, Mar 28
45 °FLight rain. Overcast.9 mph83%30.06 "Hg12 mi
10:00 PM48 °FLight rain. Overcast.13 mph69%30.05 "Hg16 mi
9:00 PM44 °FOvercast.2 mph65%30.05 "Hg19 mi
8:00 PM44 °FOvercast.No wind65%30.06 "Hg19 mi
7:00 PM48 °FOvercast.1 mph51%30.04 "Hg19 mi
6:00 PM51 °FPassing clouds.3 mph43%30.04 "Hg19 mi
5:00 PM52 °FPassing clouds.5 mph41%30.04 "Hg19 mi
4:00 PM53 °FSunny.5 mph40%30.06 "Hg19 mi
3:00 PM52 °FSunny.5 mph43%30.09 "Hg19 mi
2:00 PM52 °FPassing clouds.6 mph43%30.12 "Hg19 mi
1:00 PM50 °FScattered clouds.7 mph45%30.14 "Hg19 mi
12:00 PM50 °FScattered clouds.6 mph46%30.18 "Hg19 mi
11:00 AM46 °FPartly sunny.5 mph50%30.22 "Hg22 mi
10:00 AM44 °FPartly sunny.5 mph57%30.25 "Hg22 mi
9:00 AM42 °FOvercast.5 mph66%30.26 "Hg19 mi
8:00 AM40 °FOvercast.5 mph72%30.27 "Hg19 mi
7:00 AM38 °FOvercast.5 mph75%30.29 "Hg19 mi
6:00 AM37 °FOvercast.5 mph78%30.28 "Hg19 mi
5:00 AM38 °FOvercast.5 mph78%30.27 "Hg22 mi
4:00 AM37 °FOvercast.5 mph80%30.27 "Hg22 mi
3:00 AM37 °FOvercast.5 mph77%30.27 "Hg22 mi
Weather by CustomWeather, © 2015

See weather overviewHow to use our weather pages